{"data":{"norad_id":64572,"epoch":"2026-05-25T03:45:37.717920Z","epoch_age_seconds":55524,"freshness":"FRESH","line1":"1 64572U 25135AW  26145.15668655  .00001319  00000+0  13080-3 0  9998","line2":"2 64572  97.7720 259.6636 0003130  67.8894 292.2658 14.93461530 50447","mean_motion":14.9346153,"eccentricity":0.000313,"inclination_deg":97.772,"raan_deg":259.6636,"arg_perigee_deg":67.8894,"mean_anomaly_deg":292.2658,"bstar":0.0001308,"rev_number":5044,"period_min":96.420294133723,"perigee_km":584.97198106944,"apogee_km":589.33225205641,"semimajor_km":6965.2891165629,"source":"CELESTRAK","updated_at":"2026-05-25T13:38:04.621379Z"}}